Date String (YYYY-MM-DD hh:mm:ss) UTC,Instrument flags,absolute air pressure of the measurement (hPa),sample flow rate (lpm),inlet stack bypass flow (lpm),air temperature of the measurement (°C),ambient temperature measured by the external sensor (°C),aerosol sample conditioner tube jacket temperature (°C),OPC LED temperature (°C),internal box temperature (°C),relative humidity of the measurement (%),span deviation,mass concentration of particles derived from Lorenz-Mie calculation of OPC scattering (μg/m³),mass concentration of particles derived from Lorenz-Mie calculation of OPC scattering (μg/m³),mass concentration of particles derived from Lorenz-Mie calculation of OPC scattering (μg/m³)
DateTimeUTC,F1_M11,P_M11,Q1_M11,Q2_M11,T1_M11,T2_M11,T3_M11,T4_M11,T5_M11,U1_M11,ZSPAN_M11,X0_M11,X2_M11,X1_M11
2024-02-24 09:00:00,SystemResetWarning,0828.9,5.01,000.00,018.3,017.5,000.0,026.9,020.0,08.6,0000.0,0002.39,0001.27,0000.81
2024-02-24 09:01:00,SystemResetWarning,0829.0,5.00,000.00,018.3,017.5,000.0,026.9,020.0,09.1,0000.0,0002.39,0001.29,0000.82
2024-02-24 09:02:00,SystemResetWarning,0828.9,5.00,000.00,018.3,017.5,000.0,026.9,020.0,09.3,0000.0,0002.42,0001.27,0000.81
2024-02-24 09:03:00,SystemResetWarning,0828.9,5.00,000.00,018.4,017.5,000.0,026.9,020.0,09.3,0000.0,0003.34,0001.31,0000.81
2024-02-24 09:04:00,SystemResetWarning,0829.0,5.00,000.00,018.4,017.5,000.0,026.9,020.0,09.4,0000.0,0003.74,0001.29,0000.81
2024-02-24 09:05:00,SystemResetWarning,0828.9,5.00,000.00,018.4,017.5,000.0,026.9,020.0,09.4,0000.0,0003.63,0001.26,0000.81
2024-02-24 09:06:00,SystemResetWarning,0828.9,5.01,000.00,018.4,017.5,000.0,026.9,020.0,09.8,0000.0,0003.58,0001.24,0000.81
2024-02-24 09:07:00,SystemResetWarning,0828.8,5.01,000.00,018.4,017.5,000.0,026.9,020.0,09.5,0000.0,0003.60,0001.23,0000.82
2024-02-24 09:08:00,SystemResetWarning,0828.8,4.99,000.00,018.4,017.6,000.0,026.9,020.0,09.5,0000.0,0003.58,0001.17,0000.81
2024-02-24 09:09:00,SystemResetWarning,0828.8,4.99,000.00,018.4,017.6,000.0,026.9,020.0,09.5,0000.0,0003.52,0001.12,0000.80
2024-02-24 09:10:00,SystemResetWarning,0828.8,5.00,000.00,018.4,017.6,000.0,026.9,020.0,09.3,0000.0,0003.47,0001.12,0000.80
2024-02-24 09:11:00,SystemResetWarning,0828.8,5.00,000.00,018.4,017.6,000.0,026.9,020.0,09.4,0000.0,0003.46,0001.11,0000.79
2024-02-24 09:12:00,SystemResetWarning,0828.8,5.00,000.00,018.4,017.6,000.0,026.9,020.0,09.5,0000.0,0003.55,0001.14,0000.79
2024-02-24 09:13:00,SystemResetWarning,0828.8,5.00,000.00,018.4,017.6,000.0,026.9,020.0,09.5,0000.0,0003.54,0001.17,0000.80
2024-02-24 09:14:00,SystemResetWarning,0828.9,5.01,000.00,018.4,017.6,000.0,026.9,020.0,09.6,0000.0,0002.83,0001.12,0000.81
2024-02-24 09:15:00,SystemResetWarning,0828.8,5.00,000.00,018.4,017.6,000.0,026.9,020.0,09.5,0000.0,0002.17,0001.12,0000.81
2024-02-24 09:16:00,SystemResetWarning,0828.8,5.00,000.00,018.4,017.6,000.0,026.9,020.0,09.5,0000.0,0002.27,0001.16,0000.82
2024-02-24 09:17:00,SystemResetWarning,0828.6,4.99,000.00,018.4,017.6,000.0,026.9,020.0,09.0,0000.0,0002.50,0001.22,0000.84
2024-02-24 09:18:00,SystemResetWarning,0828.6,4.99,000.00,018.4,017.6,000.0,026.9,020.0,08.8,0000.0,0002.53,0001.21,0000.84
2024-02-24 09:19:00,SystemResetWarning,0828.6,5.00,000.00,018.4,017.6,000.0,026.8,020.0,08.2,0000.0,0002.53,0001.23,0000.85
2024-02-24 09:20:00,SystemResetWarning,0828.6,5.00,000.00,018.4,017.6,000.0,026.9,020.0,08.6,0000.0,0002.62,0001.29,0000.87
2024-02-24 09:21:00,SystemResetWarning,0828.6,5.01,000.00,018.4,017.6,000.0,026.9,020.0,08.8,0000.0,0003.36,0001.34,0000.89
2024-02-24 09:22:00,SystemResetWarning,0828.7,5.00,000.00,018.4,017.6,000.0,026.9,020.0,08.8,0000.0,0003.65,0001.36,0000.91
2024-02-24 09:23:00,SystemResetWarning,0828.6,5.00,000.00,018.4,017.5,000.0,026.9,020.0,08.8,0000.0,0003.63,0001.33,0000.91
2024-02-24 09:24:00,SystemResetWarning,0828.6,5.00,000.00,018.4,017.5,000.0,026.9,020.0,08.7,0000.0,0003.59,0001.30,0000.90
2024-02-24 09:25:00,SystemResetWarning,0828.6,4.99,000.00,018.4,017.5,000.0,026.9,020.0,08.5,0000.0,0003.99,0001.35,0000.91
2024-02-24 09:26:00,SystemResetWarning,0828.6,5.00,000.00,018.4,017.5,000.0,026.9,020.0,08.6,0000.0,0004.42,0001.40,0000.91
2024-02-24 09:27:00,SystemResetWarning,0828.6,5.00,000.00,018.4,017.5,000.0,026.9,020.0,08.7,0000.0,0005.20,0001.41,0000.91
2024-02-24 09:28:00,SystemResetWarning,0828.6,5.00,000.00,018.4,017.5,000.0,026.9,020.0,08.8,0000.0,0005.56,0001.39,0000.90
2024-02-24 09:29:00,SystemResetWarning,0828.5,5.00,000.00,018.4,017.5,000.0,026.9,020.0,08.8,0000.0,0005.60,0001.42,0000.90
2024-02-24 09:30:00,SystemResetWarning,0828.5,5.00,000.00,018.4,017.5,000.0,026.9,020.0,08.4,0000.0,0005.58,0001.40,0000.89
2024-02-24 09:31:00,SystemResetWarning,0828.5,5.00,000.00,018.4,017.5,000.0,026.9,020.0,08.3,0000.0,0005.52,0001.38,0000.88
2024-02-24 09:32:00,SystemResetWarning,0828.5,5.00,000.00,018.4,017.5,000.0,026.9,020.0,08.6,0000.0,0004.92,0001.37,0000.88
2024-02-24 09:33:00,SystemResetWarning,0828.4,5.00,000.00,018.4,017.5,000.0,026.9,020.0,08.5,0000.0,0004.64,0001.36,0000.87
2024-02-24 09:34:00,SystemResetWarning,0828.4,5.00,000.00,018.4,017.5,000.0,026.9,020.0,07.9,0000.0,0004.61,0001.35,0000.87
2024-02-24 09:35:00,SystemResetWarning,0828.6,5.00,000.00,018.4,017.4,000.0,026.9,020.0,08.1,0000.0,0004.65,0001.36,0000.87
2024-02-24 09:36:00,SystemResetWarning,0828.6,5.00,000.00,018.4,017.4,000.0,026.9,020.0,08.4,0000.0,0004.48,0001.36,0000.86
2024-02-24 09:37:00,SystemResetWarning,0828.6,5.00,000.00,018.3,017.4,000.0,026.9,020.0,08.3,0000.0,0003.94,0001.32,0000.86
2024-02-24 09:38:00,SystemResetWarning,0828.5,5.00,000.00,018.3,017.4,000.0,026.9,020.0,07.9,0000.0,0003.51,0001.33,0000.85
2024-02-24 09:39:00,SystemResetWarning,0828.6,5.00,000.00,018.3,017.4,000.0,026.9,020.0,07.6,0000.0,0002.78,0001.33,0000.84
2024-02-24 09:40:00,SystemResetWarning,0828.6,5.00,000.00,018.3,017.4,000.0,026.9,020.0,07.9,0000.0,0002.86,0001.37,0000.84
2024-02-24 09:41:00,SystemResetWarning,0828.7,5.00,000.00,018.3,017.4,000.0,026.9,020.0,08.1,0000.0,0003.89,0001.41,0000.84
2024-02-24 09:42:00,SystemResetWarning,0828.7,5.00,000.00,018.3,017.4,000.0,026.9,020.0,08.3,0000.0,0004.08,0001.43,0000.84
2024-02-24 09:43:00,SystemResetWarning,0828.7,5.00,000.00,018.3,017.4,000.0,026.9,020.0,08.2,0000.0,0004.13,0001.43,0000.84
2024-02-24 09:44:00,SystemResetWarning,0828.8,5.00,000.00,018.3,017.4,000.0,026.9,020.0,08.5,0000.0,0004.47,0001.46,0000.84
2024-02-24 09:45:00,SystemResetWarning,0828.9,5.00,000.00,018.3,017.4,000.0,026.9,020.0,09.2,0000.0,0004.49,0001.48,0000.84
2024-02-24 09:46:00,SystemResetWarning,0828.9,5.00,000.00,018.3,017.4,000.0,026.9,020.0,09.2,0000.0,0004.46,0001.50,0000.85
2024-02-24 09:47:00,SystemResetWarning,0829.0,5.00,000.00,018.3,017.4,000.0,026.9,020.0,09.3,0000.0,0004.54,0001.51,0000.85
2024-02-24 09:48:00,SystemResetWarning,0828.9,4.99,000.00,018.3,017.4,000.0,026.9,020.0,09.3,0000.0,0004.57,0001.54,0000.86
2024-02-24 09:49:00,SystemResetWarning,0828.8,5.00,000.00,018.3,017.4,000.0,026.9,020.0,09.2,0000.0,0004.85,0001.57,0000.87
2024-02-24 09:50:00,SystemResetWarning,0828.8,5.00,000.00,018.3,017.3,000.0,026.9,020.0,09.2,0000.0,0004.88,0001.58,0000.88
2024-02-24 09:51:00,SystemResetWarning,0828.7,4.99,000.00,018.3,017.3,000.0,026.9,020.0,09.3,0000.0,0004.89,0001.59,0000.88
2024-02-24 09:52:00,SystemResetWarning,0828.8,4.99,000.00,018.3,017.4,000.0,026.9,020.0,09.3,0000.0,0004.39,0001.57,0000.88
2024-02-24 09:53:00,SystemResetWarning,0828.7,5.00,000.00,018.3,017.4,000.0,026.9,020.0,09.3,0000.0,0004.01,0001.58,0000.88
2024-02-24 09:54:00,SystemResetWarning,0828.7,5.01,000.00,018.3,017.4,000.0,026.9,020.0,09.3,0000.0,0003.92,0001.57,0000.89
2024-02-24 09:55:00,SystemResetWarning,0828.7,5.01,000.00,018.3,017.4,000.0,027.0,020.0,09.3,0000.0,0003.57,0001.55,0000.90
2024-02-24 09:56:00,SystemResetWarning,0828.7,4.98,000.00,018.3,017.5,000.0,027.0,020.0,09.3,0000.0,0003.70,0001.56,0000.91
2024-02-24 09:57:00,SystemResetWarning,0828.7,5.00,000.00,018.3,017.5,000.0,027.0,020.0,09.3,0000.0,0003.77,0001.59,0000.91
2024-02-24 09:58:00,SystemResetWarning,0828.6,5.00,000.00,018.3,017.5,000.0,027.0,020.0,09.1,0000.0,0004.43,0001.56,0000.93
2024-02-24 09:59:00,SystemResetWarning,0828.7,5.00,000.00,018.3,017.5,000.0,026.9,020.0,09.2,0000.0,0004.57,0001.53,0000.94
